Regional Weather Roundup
Issued by NWS

Home | Current Version | Previous Version | Graphics & Text | Print | Product List | Glossary On
Versions: 1 2 3 4 5 6 7 8 9 10 11 12 13 14 15 16 17 18 19 20 21 22 23 24 25 26 27 28 29 30 31 32 33 34 35 36 37 38 39 40 41 42 43 44 45 46 47 48 49 50
000
ASUS43 KLOT 010809
RWRIL

ILLINOIS REGIONAL WEATHER ROUNDUP
NATIONAL WEATHER SERVICE CHICAGO/ROMEOVILLE IL
300 AM CDT SAT OCT 01 2016

NOTE: "FAIR" INDICATES FEW OR NO CLOUDS BELOW 12,000 FEET WITH NO
SIGNIFICANT WEATHER AND/OR OBSTRUCTIONS TO VISIBILITY.

* THESE STATIONS ARE NOT UNDER NWS QUALITY CONTROL. THEY ALSO MAY NOT
  REPORT WEATHER SUCH AS PRECIPITATION OR FOG.

ILZ001-002-007-009-015-016-024-010900-
NORTHWEST ILLINOIS

CITY           SKY/WX    TMP DP  RH WIND       PRES   REMARKS
MOLINE         LGT RAIN  61  57  87 N7        30.06F
STERLING*      LGT RAIN  60  59  96 N5        30.05F FOG
SAVANNA*       CLOUDY    59  58  96 N5        30.06F
$$

ILZ003-004-008-010-011-017-018-010900-
NORTH CENTRAL ILLINOIS

CITY           SKY/WX    TMP DP  RH WIND       PRES   REMARKS
ROCKFORD       DRIZZLE   60  59  96 N7        30.06F FOG
FREEPORT*      DRIZZLE   58  57  97 N3        30.08F
ROCHELLE*      CLOUDY    59  59  99 N3        30.05F FOG
DE KALB*       CLOUDY    60  59  98 N3        30.05F FOG
$$

ILZ005-006-012>014-019>023-010900-
NORTHEAST ILLINOIS

CITY           SKY/WX    TMP DP  RH WIND       PRES   REMARKS
CHICAGO-OHARE  MOCLDY    60  56  86 E6        30.04S
CHICAGO-MIDWAY CLOUDY    61  56  83 E7        30.03F
AURORA         CLOUDY    61  59  93 N5        30.04F
LANSING*       MOCLDY    57  57 100 N3        30.03F
JOLIET*        CLOUDY    62  59  88 E3        30.03S
WAUKEGAN       PTCLDY    57  55  93 CALM      30.05S
DUPAGE AIRPORT CLOUDY    61  57  87 NE6       30.04S
KANKAKEE*      CLOUDY    58  58  97 CALM      30.03S
WHEELING       MOCLDY    60  57  89 E3        30.06S
MORRIS*        CLOUDY    61  58  91 CALM      30.02F
ROMEOVILLE*    PTCLDY    58  58  99 E5        30.04S
NORTHERLY ISL    N/A     60  56  86 E6          N/A
$$

LMZ740>746-010900-
SOUTHERN LAKE MICHIGAN

STATION/POSITION SKY/WX   TEMP    WIND        PRES    VSBY  WAVE
                          AIR SEA DIR/SP/G                  HT/PER
                          (F)     (DEG/KT/KT) (MB)    (MI)  (FT/S)
SOUTHERN BUOY              63 67  100/ 14/ 16 1017.1F         4/ 6
WILMETTE HARBOR            60 59  140/  6/  8   N/A           4/ 7
HARRISON CRIB              62     100/ 10/ 11   N/A
BURNHAM HARBOR             60      80/  2/  8   N/A
CALUMET HARBOR             61      90/  5/  9 1016.8F
BURNS HARBOR               60      80/  9/ 10 1017.3F
MICHIGAN CITY              60      30/  6/  7   N/A
MICHIGAN CITY 6N           62 64   50/  8/ 12   N/A           3/ 7
ST. JOSEPH                 54 51  360/  8/ 10 1017.2          2/ 5
$$

ILZ025>027-034>036-040-047-049-050-058-095>099-010900-
WEST-CENTRAL ILLINOIS

CITY           SKY/WX    TMP DP  RH WIND       PRES   REMARKS
QUINCY         CLOUDY    61  59  93 N6        30.05F
GALESBURG*     CLOUDY    59  58  96 N6        30.05F
MACOMB*        CLOUDY    60  59  96 N9        30.07F
JACKSONVILLE*  CLOUDY    61  60  96 NW5       30.03S FOG
PITTSFIELD*    CLOUDY    61  60  96 N6        30.05F
$$

ILZ028>032-037-038-041>044-048-051>054-059>061-010900-
CENTRAL ILLINOIS

CITY           SKY/WX    TMP DP  RH WIND       PRES   REMARKS
PONTIAC        CLOUDY    61  61 100 NE7       30.03S
BLOOMINGTON    CLOUDY    60  59  96 NE9       30.02F FOG
DECATUR        LGT RAIN  62  59  90 N9        30.00S
PEORIA         CLOUDY    61  61 100 N5        30.03S
LACON*         CLOUDY    60  59  96 N3        30.02F
LINCOLN*       CLOUDY    61  61 100 N5        30.01F FOG
SPRINGFIELD    CLOUDY    62  60  93 N8        30.01F FOG
TAYLORVILLE    CLOUDY    60  60  99 N6        30.00F FOG
$$

ILZ033-039-045-046-055>057-062-063-010900-
EAST-CENTRAL ILLINOIS

CITY           SKY/WX    TMP DP  RH WIND       PRES   REMARKS
CHAMPAIGN      CLOUDY    61  59  93 N6        30.00S
RANTOUL*       CLOUDY    62  60  96 NE7       30.00S FOG
MATTOON        CLOUDY    59  57  93 CALM      29.98F
PARIS*         CLOUDY    57  57 100 CALM      30.00S
$$

ILZ079-100>102-010900-
SOUTHWEST ILLINOIS

CITY           SKY/WX    TMP DP  RH WIND       PRES   REMARKS
ALTON          DRIZZLE   60  59  97 NW5       30.01F
BELLEVILLE     MOCLDY    62  62 100 NW8       29.99F
CAHOKIA*       CLOUDY    63  59  87 NW8       30.01F
SPARTA*        CLOUDY    61  60  97 NW3       30.01F
$$

ILZ064>066-069>071-074>076-080>082-084>086-088>090-092>094-010900-
SOUTH-CENTRAL ILLINOIS

CITY           SKY/WX    TMP DP  RH WIND       PRES   REMARKS
CARBONDALE     CLOUDY    61  61 100 W6        30.00F
CAIRO*         PTCLDY    60  59  97 W6        30.02S
EFFINGHAM*     LGT RAIN  60  60 100 CALM      30.00F
MARION         CLOUDY    63  63 100 W3        30.00F FOG
MT. VERNON     CLOUDY    63  57  82 CALM      29.99F
CENTRALIA*     RAIN      62  62 100 NW5       29.98F
SALEM*         LGT RAIN  63  61  93 CALM      29.98F
METROPOLIS*    CLOUDY    61  60  96 W5        30.01S
$$

ILZ067-068-072-073-078-083-087-091-010900-
SOUTHEAST ILLINOIS

CITY           SKY/WX    TMP DP  RH WIND       PRES   REMARKS
LAWRENCEVILLE  MOCLDY    56  54  93 CALM      29.99F
FLORA*         CLOUDY    62  62  97 CALM      29.99S FOG
FAIRFIELD*       N/A     60  60 100 CALM      29.98F
HARRISBURG*    CLOUDY    61  61 100 W3        29.99F FOG
ROBINSON*      CLOUDY    56  56 100 CALM      30.00S FOG
CARMI*         LGT RAIN  57  57 100 CALM      29.98F
$$

ABBREVIATIONS USED IN REMARKS
   TC - TEMPERATURE IN CELSIUS
  WCI - WIND CHILL INDEX
   HX - HEAT INDEX
  VSB - VISIBILITY
$$





USA.gov is the U.S. government's official web portal to all federal, state and local government web resources and services.